Location: Arboucave
(43.6130°N, 0.4343°W)
Time: 11:58:42
(UTC+00:00)

BlueWalker 3 - Pass Details

Date: 17 November 2025
Orbit: 455 x 462 km, 53.2° (Epoch: 10 December)

Event Time Altitude Azimuth Distance (km) Brightness Sun altitude
Rises 18:44:11 0° 214° (SSW) 2,474 6.0 -23.3°
Reaches altitude 10° 18:46:24 10° 206° (SSW) 1,605 4.8 -23.7°
Enters shadow 18:47:51 21° 194° (SSW) 1,089 3.8 -24.0°
